STARLINK-35363 (66178 NORAD) Tracking and Keplerian Element Data

This shows tracking and keplerian element data for the satellite.

Feedback or suggestion? Click here.




ElementValue
Catalog66178
NameSTARLINK-35363
Epoch Orbit845
Epoch Day354.01462873
Epoch Year2025
RAAN255.442
Inclination53.1597
Eccentricity0.0001229
Argument of Perigee94.7333
Mean Anonmoly265.3808
Mean Motion15.30197188
Decay Rate8.277E-05
L11 66178U 25243B 25354.01462873 .00008277 00000+0 29130-3 0 9995
L22 66178 53.1597 255.4420 0001229 94.7333 265.3808 15.30197188 8457



Live tracking and technical data element details for STARLINK-35363 (NORAD 66178). STARLINK-35363 can be tracked NOW for your location showing map with azimuth and elevation plus other details from your city location.







IsCatalogInMostPopularTable: catalog: 66178, numindb: 9
Update: records affected: 1



GetName: 66178 STARLINK-35363

Hit Count: updated at: Tue, 21 Apr 2026 19:43:44 GMT